Content
SEND FEEDBACK

Daily
Averages
Monthly
Summary
Mexico

TEOPANTLÁN, PUEBLA


Home > North America > Mexico > Puebla
Elevation: 4652 feet     Latitude: 18 42N     Longitude: 098 15W

WEATHER
 
SELECT A DAY
Number of Records: 125,415;   Date Range: 1/1/95 - 12/17/14
 
SHARE

PRINT THIS DATA

[ ← Previous Day ]
WEATHER ALMANAC - JANUARY 3, 2013
[ Next Day → ]
[ °C ]   °F
Weather ElementAverageHighLow
Temperature57.4 °F68 °F (2:45 pm)44.6 °F (6:00 am)
Dewpoint45.4 °F50 °F (8:55 am)42.8 °F (6:00 am)
Humidity64.7 %93 % (6:00 am)33 % (2:40 pm)
Barometer30.21 in30.37 in (9:41 am)29.82 in (5:40 pm)
Wind Speed5.4 mph15 mph (4:50 pm)
Weather ElementAverage
Visibility8.1 mi
Wind DirectionSSE (160.4 °)

Weather ElementTotal
Precipitation---
Heating Degree Days8.7 (Base 65)
Growing Degree Days6.3 (Base 50)
Averaged from 24 records on January 3, 2013
WEATHER CONDITIONS BREAKOUT
WIND DIRECTION BREAKOUT
WEATHER BY HOUR - JANUARY 3, 2013
[ °C ]   °F
Local TimeTemperatureDewpointHumidityBarometerVisibilityWind DirectionWind SpeedGust SpeedPrecipitationEventsConditions
6:00 AM44.6 °F42.8 °F93 %30.29 in8.0 miWNW (300°)3.5 mphMostly Cloudy
6:47 AM48.2 °F42.8 °F82 %30.30 in8.0 miWNW (300°)3.5 mphOvercast
7:53 AM48.2 °F44.6 °F87 %30.33 in8.0 miCalmOvercast
8:46 AM50.0 °F44.6 °F82 %30.36 in8.0 miCalmOvercast
8:55 AM53.0 °F50.0 °F86 %29.99 in3.0 miENE (60°)4.5 mphHaze
9:41 AM53.6 °F44.6 °F72 %30.37 in8.0 miNNW (340°)4.6 mphOvercast
10:40 AM57.2 °F48.2 °F72 %30.36 in8.0 miCalmOvercast
11:41 AM60.8 °F46.4 °F59 %30.33 in8.0 miSE (140°)8.1 mphOvercast
11:50 AM63.0 °F47.0 °F45 %29.98 in9.0 miSSE (150°)2.2 mphHaze
12:40 PM62.6 °F46.4 °F55 %30.30 in8.0 miSE (140°)10.4 mphOvercast
1:42 PM66.2 °F44.6 °F46 %30.27 in8.0 miSSE (160°)4.6 mphMostly Cloudy
2:40 PM66.0 °F44.0 °F33 %29.85 in12.0 miSE (140°)2.2 mphMostly Cloudy
2:45 PM68.0 °F44.6 °F43 %30.25 in8.0 miSSE (150°)9.2 mphMostly Cloudy
3:42 PM68.0 °F42.8 °F40 %30.26 in8.0 miSouth (180°)11.5 mphMostly Cloudy
4:50 PM66.2 °F44.6 °F46 %30.27 in8.0 miSouth (190°)15.0 mphMostly Cloudy
5:40 PM66.0 °F44.0 °F33 %29.82 in12.0 miSSE (160°)2.2 mphPartly Cloudy
5:45 PM62.6 °F44.6 °F52 %30.29 in8.0 miSSW (210°)15.0 mphMostly Cloudy
6:42 PM57.2 °F46.4 °F67 %30.30 in8.0 miSSW (200°)6.9 mphPartly Cloudy
7:46 PM51.8 °F46.4 °F82 %30.32 in10.0 miSouth (180°)6.9 mphClear
8:45 PM58.0 °F49.0 °F65 %29.86 in3.0 miENE (60°)2.2 mph
8:46 PM53.6 °F44.6 °F72 %30.34 in10.0 miSSW (200°)5.8 mphClear
9:41 PM53.6 °F44.6 °F72 %30.34 in10.0 miSSW (200°)5.8 mphClear
10:40 PM46.4 °F42.8 °F87 %30.37 in10.0 miNW (320°)3.5 mphClear
11:45 PM53.0 °F49.0 °F81 %29.90 in3.0 miENE (70°)2.2 mph
Hourly data recorded from MMPB, located miles away from Teopantlán, Puebla







STORIES FROM OUR PARTNERS